Weather observations for the past three days for
Fitzgerald Municipal Airport
Imperial (Metric)
Date Time (edt) Wind (mph) Vis. (mi.) Weather Sky Cond. Temperature (ºF) Relative Humidity Wind Chill (°F) Heat Index (°F) Pressure Precipitation (in)
Air Dwpt 6 hour altimeter (in) sea level (mb) 1 hr 3 hr 6 hr
Max. Min.
17 08:55 W 3 10.00 Fair CLR 82.6 75.9 80% 90 30.11 0.0
17 08:35 W 7 10.00 Fair CLR 81.5 75.6 82% 88 30.12 0.0
17 08:15 W 3 10.00 Fair CLR 79.9 75.4 86% 85 30.11 0.0
17 07:55 Calm 10.00 Fair CLR 78.3 75.4 78.3 76.1 91% 81 30.1 0.0
17 07:35 Calm 10.00 Partly Cloudy SCT024 77 74.7 93% 78 30.09 0.0
17 07:15 Calm 10.00 Partly Cloudy SCT024 SCT029 SCT035 76.6 74.5 93% 77 30.08 0.0
17 06:55 Calm 10.00 Partly Cloudy SCT017 SCT024 76.3 74.3 94% 76 30.07 0.0
17 06:35 Calm 10.00 Mostly Cloudy SCT017 BKN023 76.3 74.3 94% 76 30.06 0.0
17 06:15 Calm 10.00 Fair CLR 76.1 74.3 94% 76 30.04 0.0
17 05:55 Calm 10.00 Fair CLR 76.1 74.3 94% 76 30.03 0.0
17 05:35 Calm 10.00 Fair CLR 76.1 74.3 94% 76 30.02 0.0
17 05:15 SW 5 10.00 Fair CLR 76.1 74.3 94% 76 30.02 0.0
17 04:55 SW 5 10.00 Fair CLR 76.1 74.3 94% 76 30.01 0.0
17 04:35 SW 3 10.00 Fair CLR 76.3 74.3 94% 76 30.02 0.0
17 04:15 SW 3 10.00 Fair CLR 76.5 74.3 93% 77 30.02 0.0
17 03:55 SW 3 10.00 Fair CLR 76.6 74.5 93% 77 30.02 0.0
17 03:35 Calm 10.00 Fair CLR 76.6 74.3 93% 77 30.02 0.0
17 03:15 Calm 10.00 Fair CLR 77 74.5 92% 78 30.01 0.0
17 02:55 Calm 10.00 Fair CLR 77 74.5 92% 78 30.02 0.0
17 02:35 SW 3 10.00 Fair CLR 77.4 74.7 91% 79 30.02 0.0
17 02:15 Calm 10.00 Fair CLR 77.4 74.7 91% 79 30.03 0.0
17 01:55 Calm 10.00 Fair CLR 77.9 74.8 84.6 77.5 90% 80 30.03 0.0
17 01:35 Calm 10.00 Fair CLR 78.1 74.7 89% 81 30.04 0.0
17 01:15 S 3 10.00 Fair CLR 78.1 74.7 89% 81 30.03 0.0
17 00:55 S 5 10.00 Fair CLR 77.9 74.7 90% 80 30.03 0.0
17 00:35 Calm 10.00 Fair CLR 78.3 74.7 89% 81 30.04 0.0
17 00:15 S 5 10.00 Fair CLR 78.8 75.2 89% 82 30.04 0.0
16 23:55 SE 3 10.00 Partly Cloudy SCT037 78.6 75 89% 82 30.05 0.0
16 23:35 Calm 10.00 Partly Cloudy SCT037 79.7 75.2 86% 84 30.07 0.0
16 23:15 Calm 10.00 Fair CLR 79.9 74.8 85% 85 30.07 0.0
16 22:55 Calm 10.00 Fair CLR 80.1 74.8 84% 85 30.07 0.0
16 22:35 SW 5 10.00 Fair CLR 80.1 74.7 84% 85 30.06 0.0
16 21:55 SW 6 10.00 Fair CLR 80.8 74.7 82% 86 30.06 0.0
16 21:35 S 6 10.00 Fair CLR 81.1 74.5 80% 87 30.05 0.0
16 21:15 S 3 10.00 Fair CLR 81.7 74.7 79% 88 30.05 0.0
16 20:55 SW 3 10.00 Fair CLR 82.6 74.3 76% 89 30.04 0.0
16 20:35 SW 5 10.00 Partly Cloudy SCT002 83.3 73.9 73% 90 30.03 0.0
16 20:15 SW 7 10.00 Fair CLR 84.2 73.8 71% 91 30.02 0.0
16 19:55 SW 6 10.00 Fair CLR 84.6 73.8 95 84.6 70% 92 30.02 0.0
16 19:35 SW 9 10.00 Fair CLR 85.1 73.6 69% 92 30.02 0.0
16 19:15 SW 8 10.00 Partly Cloudy SCT002 86.9 72.9 63% 94 30.01 0.0
16 18:55 S 8 10.00 Fair CLR 88.7 71.1 56% 95 30.01 0.0
16 18:35 SW 9 10.00 Fair CLR 90.5 72.5 56% 98 30 0.0
16 18:15 SW 6 10.00 Fair CLR 91.4 72.9 55% 100 30 0.0
16 17:55 S 9 10.00 Partly Cloudy SCT060 90.3 72.7 56% 98 30 0.0
16 17:35 SW 12 G 21 10.00 Partly Cloudy SCT049 SCT060 90.5 73.4 57% 99 30 0.0
16 17:15 SW 9 10.00 Partly Cloudy SCT049 SCT060 93.4 73.2 52% 103 30 0.0
16 16:55 W 8 10.00 Partly Cloudy SCT046 94.5 73 50% 104 30 0.0
16 16:35 SW 9 10.00 Partly Cloudy SCT046 94.8 72.9 49% 104 30 0.0
16 16:15 SW 7 10.00 Partly Cloudy SCT046 94.1 73 51% 103 30 0.0
16 15:55 W 3 10.00 Partly Cloudy SCT043 SCT049 SCT055 93 73.2 53% 102 30 0.0
16 15:35 W 6 10.00 Mostly Cloudy SCT041 SCT048 BKN090 90.9 73.4 57% 100 30.02 0.0
16 15:15 SW 7 10.00 Mostly Cloudy SCT041 BKN050 BKN065 93.4 73.4 52% 103 30.02 0.0
16 14:55 SW 6 10.00 Partly Cloudy SCT041 SCT050 SCT065 92.7 73.4 54% 102 30.03 0.0
16 14:35 SW 8 10.00 Mostly Cloudy SCT038 SCT045 BKN090 91.9 74.5 57% 102 30.04 0.0
16 14:15 W 7 10.00 Mostly Cloudy SCT038 BKN048 BKN050 91.8 74.3 57% 102 30.04 0.0
16 13:55 W 5 10.00 Mostly Cloudy SCT038 BKN050 91 74.1 91.9 73.8 58% 101 30.05 0.0
16 13:35 W 6 10.00 Partly Cloudy SCT036 SCT044 SCT050 91.4 75 59% 102 30.06 0.0
16 13:15 W 3 10.00 Partly Cloudy SCT034 91.2 73.9 57% 101 30.06 0.0
16 12:55 W 3 10.00 Partly Cloudy SCT033 91.6 75 58% 103 30.07 0.0
16 12:35 W 5 10.00 Fair CLR 89.6 75 62% 100 30.07 0.0
16 12:15 SW 6 10.00 Fair CLR 89.2 75.2 63% 100 30.08 0.0
16 11:55 NW 3 10.00 Fair CLR 87.6 74.7 66% 97 30.08 0.0
16 11:35 W 5 10.00 Fair CLR 86.9 74.7 67% 96 30.08 0.0
16 11:15 SW 3 10.00 Fair CLR 86.2 73.4 66% 94 30.08 0.0
16 10:55 Calm 10.00 Fair CLR 85.8 72.7 65% 93 30.08 0.0
16 10:35 S 6 10.00 Fair CLR 84.4 71.6 66% 90 30.08 0.0
16 10:15 S 5 10.00 Fair CLR 84.2 71.8 66% 90 30.08 0.0
16 09:55 SW 3 10.00 Fair CLR 83.5 72 68% 89 30.09 0.0
16 09:35 Calm 10.00 Fair CLR 81.7 71.8 72% 86 30.09 0.0
16 09:15 S 3 10.00 Fair CLR 80.8 71.6 74% 85 30.09 0.0
16 08:55 Calm 10.00 Fair CLR 78.8 72.3 81% 82 30.09 0.0
16 08:35 Calm 10.00 Fair CLR 76.3 72.5 88% 77 30.09 0.0
16 08:15 Calm 10.00 Fair CLR 74.5 72.3 93% 30.09 0.0
16 07:55 Calm 10.00 Fair CLR 73.6 72.1 73.9 72.1 95% 30.08 0.0
16 07:35 Calm 10.00 Fair CLR 73.2 71.8 95% 30.07 0.0
16 07:15 Calm 7.00 Fair CLR 72.7 71.4 96% 30.07 0.0
16 06:55 Calm 10.00 Fair CLR 72.5 70.9 95% 30.07 0.0
16 06:35 Calm 10.00 Partly Cloudy SCT050 72.5 71.1 95% 30.07 0.0
16 06:15 Calm 10.00 Partly Cloudy SCT050 72.5 70.9 95% 30.06 0.0
16 05:55 Calm 10.00 Fair CLR 72.9 71.2 95% 30.05 0.0
16 05:35 Calm 10.00 Fair CLR 72.9 70.9 94% 30.05 0.0
16 05:15 Calm 10.00 Fair CLR 73.4 71.2 93% 30.05 0.0
16 04:55 NW 5 10.00 Fair CLR 73.4 71.1 92% 30.05 0.0
16 04:35 NW 5 10.00 Fair CLR 73.6 71.1 92% 30.03 0.0
16 04:15 Calm 10.00 Fair CLR 73.4 71.1 92% 30.01 0.0
16 03:55 Calm 10.00 Fair CLR 73.6 71.2 92% 30 0.0
16 03:35 Calm 10.00 Fair CLR 73.6 71.2 92% 30 0.0
16 03:15 Calm 10.00 Fair CLR 73.4 70.9 92% 30 0.0
16 02:55 Calm 10.00 Fair CLR 73.6 71.1 92% 30.01 0.0
16 02:35 Calm 10.00 Fair CLR 73.8 71.1 91% 30.01 0.0
16 02:15 Calm 10.00 Fair CLR 73.9 70.9 90% 30.02 0.0
16 01:55 SW 3 10.00 Fair CLR 73.9 70.7 84.2 73.9 90% 30.02 0.0
16 01:35 W 3 10.00 Fair CLR 73.9 70.7 90% 30.03 0.0
16 01:15 W 3 10.00 Fair CLR 74.3 71.2 90% 30.04 0.0
16 00:55 SW 5 10.00 Fair CLR 74.5 71.8 91% 30.05 0.0
16 00:35 W 3 10.00 Fair CLR 75 72 90% 74 30.06 0.0
16 00:15 SW 3 10.00 Fair CLR 75.2 72.5 91% 74 30.06 0.0
15 23:55 W 5 10.00 Fair CLR 75.7 72.9 91% 75 30.05 0.0
15 23:35 SW 3 10.00 Fair CLR 76.1 72.9 90% 76 30.05 0.0
15 23:15 SW 3 10.00 Fair CLR 76.3 73.4 91% 77 30.05 0.0
15 22:55 Calm 10.00 Partly Cloudy SCT050 SCT070 SCT080 77 73.6 89% 78 30.05 0.0
15 22:35 Calm 10.00 Partly Cloudy SCT100 SCT110 77 73.2 88% 78 30.05 0.0
15 22:15 SW 5 10.00 Overcast SCT080 OVC110 77.9 73.9 88% 80 30.05 0.0
15 21:55 SW 3 10.00 Mostly Cloudy SCT090 BKN120 78.6 73.8 85% 82 30.04 0.0
15 21:35 Calm 10.00 Partly Cloudy SCT090 79.7 73.4 81% 84 30.04 0.0
15 21:15 W 7 10.00 Thunderstorm in Vicinity CLR 81 73 77% 86 30.03 0.0
15 20:55 SW 5 10.00 Thunderstorm CLR 82.9 73.8 74% 89 30.02 0.0
15 20:35 S 5 10.00 Fair CLR 83.7 74.3 74% 91 30.03 0.0
15 20:15 SW 7 10.00 Fair CLR 84.2 74.7 73% 92 30.03 0.0
15 19:55 S 6 10.00 Fair CLR 84.2 74.7 97.2 83.8 73% 92 30.03 0.0
15 19:35 Calm 10.00 Fair CLR 84.2 74.3 72% 92 30.02 0.0
15 19:15 SE 3 10.00 Partly Cloudy SCT050 84.6 73.9 71% 92 30.01 0.0
15 18:55 SE 6 10.00 Thunderstorm in Vicinity SCT050 85.3 73.4 68% 92 30.02 0.0
15 18:35 E 5 10.00 Partly Cloudy SCT037 SCT050 86.2 73.8 67% 94 29.99 0.0
15 18:15 NE 5 10.00 Thunderstorm SCT037 SCT050 90.1 73.8 59% 99 30.01 0.0
15 17:55 SW 5 10.00 Fair CLR 90.5 73.6 58% 100 29.98 0.0
15 17:35 S 10 10.00 Partly Cloudy SCT060 SCT070 SCT095 90.1 70.7 53% 96 29.97 0.0
15 17:15 S 14 G 17 10.00 Partly Cloudy SCT060 SCT070 91.2 73.6 56% 100 29.99 0.0
15 16:55 W 6 10.00 Partly Cloudy SCT060 94.5 72.9 50% 104 29.99 0.0
15 16:35 SW 5 10.00 Fair CLR 91.8 75.4 59% 103 30 0.0
15 16:15 SW 7 10.00 Fair CLR 88.9 73.2 60% 97 30 0.0
15 15:55 SW 7 10.00 Partly Cloudy SCT060 SCT070 89.6 73 58% 98 29.99 0.0
15 15:35 W 5 10.00 Mostly Cloudy SCT050 BKN070 BKN110 90 73.6 59% 99 30.02 0.0
15 15:15 SW 5 10.00 Mostly Cloudy BKN055 BKN070 BKN110 94.8 70.3 45% 102 30.02 0.0
15 14:55 Calm 10.00 Thunderstorm in Vicinity SCT055 95.4 70.7 45% 103 30.03 0.0
15 14:35 W 3 10.00 Fair CLR 95.7 72 46% 104 30.03 0.0
15 14:15 SW 5 10.00 Partly Cloudy SCT055 SCT075 94.5 72 48% 103 30.03 0.0
15 13:55 W 5 10.00 Fair CLR 95.4 72.7 96.1 79 48% 105 30.04 0.0
15 13:35 W 6 10.00 Fair CLR 95.9 73 48% 106 30.05 0.0
15 13:15 W 6 10.00 Fair CLR 95.4 72.7 48% 105 30.06 0.0
15 12:55 W 6 10.00 Fair CLR 94.3 74.5 53% 105 30.07 0.0
15 12:35 Calm 10.00 Fair CLR 93.9 74.1 53% 105 30.08 0.0
15 12:15 Calm 10.00 Fair CLR 93.2 74.1 54% 104 30.08 0.0
15 11:55 W 6 10.00 Fair CLR 92.3 75.6 58% 104 30.09 0.0
15 11:35 SW 3 10.00 Fair CLR 91.6 75.9 60% 104 30.1 0.0
15 11:15 SW 5 10.00 Fair CLR 91.4 76.6 62% 104 30.1 0.0
15 10:55 W 5 10.00 Fair CLR 90 77.2 66% 103 30.11 0.0
15 10:35 SW 5 10.00 Fair CLR 88.9 76.8 68% 101 30.11 0.0
15 10:15 SW 3 10.00 Fair CLR 87.6 76.8 70% 99 30.11 0.0
15 09:55 NW 3 10.00 Fair CLR 86.5 77 73% 98 30.11 0.0
15 09:35 W 3 10.00 Fair CLR 85.5 76.6 75% 96 30.11 0.0
15 09:15 SW 5 10.00 Fair CLR 83.7 76.3 79% 93 30.11 0.0
15 08:55 SW 3 10.00 Fair CLR 82 76.3 83% 90 30.11 0.0
15 08:35 SW 3 10.00 Fair CLR 80.6 75.9 86% 87 30.1 0.0
15 08:15 Calm 10.00 Fair CLR 79.7 75.6 87% 84 30.1 0.0
15 07:55 Calm 10.00 Fair CLR 79 75.2 80.8 77.5 88% 83 30.1 0.0
15 07:35 S 3 10.00 Fair CLR 78.8 75.2 89% 82 30.09 0.0
15 07:15 Calm 10.00 Fair CLR 78.1 75.2 91% 81 30.08 0.0
15 06:55 Calm 10.00 Fair CLR 77.5 74.5 90% 79 30.07 0.0
15 06:35 Calm 10.00 Fair CLR 77.9 74.3 89% 80 30.07 0.0
15 06:15 Calm 10.00 Fair CLR 77.9 74.5 89% 80 30.07 0.0
15 05:55 Calm 10.00 Fair CLR 78.1 74.5 89% 81 30.06 0.0
15 05:35 SW 3 10.00 Fair CLR 78.1 74.5 89% 81 30.05 0.0
15 05:15 SW 5 10.00 Fair CLR 78.4 74.5 88% 81 30.05 0.0
15 04:55 SW 5 10.00 Fair CLR 78.8 74.7 87% 82 30.05 0.0
15 04:35 SW 3 10.00 Fair CLR 78.8 74.5 87% 82 30.05 0.0
15 04:15 SW 3 10.00 Fair CLR 79 74.7 87% 83 30.05 0.0
15 03:55 SW 5 10.00 Fair CLR 79.2 74.7 86% 83 30.05 0.0
15 03:35 SW 5 10.00 Fair CLR 79.5 74.7 85% 84 30.06 0.0
15 03:15 S 5 10.00 Fair CLR 79.9 74.8 85% 85 30.07 0.0
15 02:55 SW 5 10.00 Fair CLR 80.1 74.7 84% 85 30.07 0.0
15 02:35 SW 5 10.00 Fair CLR 80.6 74.7 82% 86 30.08 0.0
15 02:15 S 5 10.00 Fair CLR 80.6 74.5 82% 86 30.08 0.0
15 01:55 SW 3 10.00 Fair CLR 80.8 74.5 92.8 80.6 81% 86 30.09 0.0
15 01:35 Calm 10.00 Fair CLR 81.1 74.3 80% 87 30.1 0.0
15 01:15 S 3 10.00 Fair CLR 81.7 73.8 77% 87 30.1 0.0
15 00:55 S 3 10.00 Fair CLR 82.4 73.6 75% 88 30.1 0.0
15 00:35 S 5 10.00 Fair CLR 82.6 73.2 73% 88 30.1 0.0
15 00:15 S 5 10.00 Fair CLR 82.6 73.2 73% 88 30.1 0.0
14 23:55 S 3 10.00 Fair CLR 82.2 73.6 75% 88 30.1 0.0
14 23:35 S 7 10.00 Fair CLR 81.7 73.9 77% 87 30.1 0.0
14 23:15 Calm 10.00 Fair CLR 82.4 75.6 80% 90 30.09 0.0
14 22:55 Calm 10.00 Fair CLR 84.7 74.7 72% 93 30.09 0.0
14 22:35 Calm 10.00 Fair CLR 82 76.1 82% 89 30.08 0.0
14 22:15 Calm 10.00 Fair CLR 82.4 76.5 82% 90 30.08 0.0
14 21:55 Calm 10.00 Fair CLR 82.9 77 82% 92 30.08 0.0
14 21:35 Calm 10.00 Fair CLR 84 76.1 77% 93 30.07 0.0
14 21:15 Calm 10.00 Fair CLR 85.1 73.6 69% 92 30.07 0.0
14 20:55 Calm 10.00 Fair CLR 86.7 75.6 69% 97 30.07 0.0
14 20:35 Calm 10.00 Fair CLR 91 70.9 52% 97 30.06 0.0
14 20:15 Calm 10.00 Fair CLR 92.3 71.4 51% 100 30.06 0.0
14 19:55 Calm 10.00 Fair CLR 92.5 72.5 97 92.5 52% 101 30.06 0.0
14 19:35 Calm 10.00 Fair CLR 94.5 68.7 43% 100 30.06 0.0
14 19:15 Calm 10.00 Fair CLR 95.2 68.7 42% 101 30.05 0.0
14 18:55 Calm 10.00 Fair CLR 95 67.5 41% 99 30.05 0.0
14 18:35 Calm 10.00 Fair CLR 95.7 68.7 41% 101 30.05 0.0
14 18:15 Calm 10.00 Fair CLR 95.9 68.2 40% 101 30.04 0.0
14 17:55 Calm 10.00 Fair CLR 96.6 68.4 40% 102 30.04 0.0
14 17:35 Calm 10.00 Fair CLR 96.4 67.8 39% 101 30.05 0.0
14 17:15 NW 5 10.00 Fair CLR 96.8 68.5 40% 102 30.05 0.0
14 16:55 Calm 10.00 Fair CLR 96.4 68.4 40% 102 30.06 0.0
14 16:35 W 3 10.00 Fair CLR 96.1 68 40% 101 30.07 0.0
14 16:15 Calm 10.00 Fair CLR 96.4 68.2 40% 102 30.08 0.0
14 15:55 NW 5 10.00 Fair CLR 96.6 68.5 40% 102 30.09 0.0
14 15:35 Calm 10.00 Fair CLR 96.4 68.4 40% 102 30.1 0.0
14 15:15 Calm 10.00 Fair CLR 96.1 67.8 40% 101 30.11 0.0
14 14:55 Calm 10.00 Fair CLR 96.3 68 40% 101 30.12 0.0
14 14:35 Calm 10.00 Fair CLR 96.3 68.7 41% 102 30.12 0.0
14 14:15 Calm 10.00 Fair CLR 95.2 68.9 42% 101 30.13 0.0
14 13:55 Calm 10.00 Fair CLR 95 68.5 95.2 78.6 42% 100 30.14 0.0
14 13:35 NW 5 10.00 Fair CLR 95.2 70.5 45% 102 30.14 0.0
14 13:15 Calm 10.00 Fair CLR 94.3 69.8 45% 100 30.15 0.0
14 12:55 W 3 10.00 Fair CLR 93.7 68.7 44% 99 30.15 0.0
14 12:35 W 5 10.00 Fair CLR 94.1 68 43% 99 30.15 0.0
14 12:15 W 5 10.00 Fair CLR 93.6 70.5 47% 100 30.16 0.0
14 11:55 NW 5 10.00 Fair CLR 92.8 72 51% 101 30.17 0.0
14 11:35 W 5 10.00 Fair CLR 92.3 72.1 52% 100 30.16 0.0
14 11:15 NW 6 10.00 Fair CLR 91.4 73.2 55% 100 30.17 0.0
14 10:55 NW 6 10.00 Fair CLR 90.9 73.8 57% 100 30.17 0.0
14 10:35 NW 5 10.00 Fair CLR 89.6 74.8 62% 100 30.17 0.0
14 10:15 NW 5 10.00 Fair CLR 88.5 74.7 64% 98 30.17 0.0
14 09:55 W 5 10.00 Fair CLR 87.3 75.2 67% 97 30.17 0.0
14 09:35 Calm 10.00 Fair CLR 85.5 76.3 74% 95 30.17 0.0
Date Time (edt) Wind (mph) Vis. (mi.) Weather Sky Cond. Air Dwpt Max. Min. Relative Humidity Wind Chill (°F) Heat Index (°F) altimeter (in) sea level (mb) 1 hr 3 hr 6 hr
6 hour
Temperature (ºF) Pressure Precipitation (in)